Delta Virtual Airport Information Service

Nassau Lynden Pindling International Airport

ICAO: MYNN Country: Bahamas
Latitude: 25.0389 Longitude: -77.4662
Latest Arrival : DAC290 (KATL-MYNN) Latest Departure : RPA4458 (MYNN-KMIA)


WX CaptureLIVE
Data provided by noaa.gov | Fetched at 00:22:06

METAR : MYNN 120300Z 09005KT 9999 FEW020 SCT050 27/23 A3010

TAF : MYNN 112023Z 1200/1224 13012KT 9999 FEW018CB SCT025


Runway Data for MYNN
Data provided by openaviationdata.com

Runway ID Mag Var Hdg Length Elevation Surface ILS Freq ILS Id ILS Slope
9 -6 95° 8318 ft 16 ft Asphalt -- -- --
14 -6 140° 11031 ft 16 ft Asphalt 110.1 IZQA 3
27 -6 275° 8318 ft 16 ft Asphalt -- -- --
32 -6 320° 11031 ft 16 ft Asphalt -- -- --

Nassau Lynden Pindling International Airport, Bahamas
Use only for reference purposes



Not for navigational purposes.